Wind_Speed
94 92 89 88 86 83 87 84 88 87 84 77 75 76 75 77 72 68 72 66 66 64 63 61 63 63 64 68 65 69 68 70 66 63 64 62 60 56 56 53 52 55 56 56 60 58 60
96 94 89 87 89 89 88 84 86 82 88 80 77 75 76 76 78 75 67 70 65 67 68 62 62 64 63 63 62 66 67 69 69 63 60 59 59 57 56 53 55 55 60 57 57 57 59
98 94 94 90 89 91 90 84 83 83 84 81 80 76 74 75 75 73 68 66 67 67 67 67 63 56 57 60 60 61 63 64 57 50 46 50 53 57 56 56 58 58 57 57 61 62 66
92 97 98 99 89 93 90 88 82 83 79 82 82 79 76 74 73 73 69 74 68 68 63 64 64 61 62 60 56 59 55 51 57 55 56 61 55 60 61 65 62 60 61 62 65 63 66
99 95 97 100 100 93 91 87 86 83 84 84 84 85 81 79 75 79 74 74 71 69 65 65 64 61 63 67 64 61 60 59 63 64 66 68 69 61 59 58 58 63 67 66 68 66 66
99 99 99 101 99 102 94 92 90 89 82 84 83 86 84 83 79 77 82 79 78 76 72 73 70 69 65 69 70 68 68 68 69 69 72 74 67 61 64 65 64 70 73 73 73 74 69
99 101 103 102 104 101 95 97 92 93 92 89 90 89 86 86 89 92 88 83 83 77 76 79 75 76 74 76 76 71 69 72 74 78 78 70 67 69 70 72 75 78 77 78 80 80 76
106 105 103 105 102 105 104 99 97 98 99 96 92 91 92 96 90 89 90 87 84 85 80 86 83 83 82 80 77 79 77 74 69 75 78 80 73 76 77 79 80 84 85 85 85 85 83
107 107 109 105 109 109 112 112 108 103 100 100 98 101 96 98 96 96 95 89 89 88 84 84 87 82 81 78 77 77 74 80 82 83 83 81 82 78 82 86 84 86 86 87 88 87 89
114 110 114 113 113 115 115 117 114 113 111 106 106 107 105 105 103 97 97 96 92 93 87 83 87 84 83 82 78 79 83 83 88 86 89 86 89 88 86 84 91 90 91 87 88 89 86
129 125 117 118 122 121 116 117 118 119 113 112 114 112 111 111 108 102 99 102 94 95 90 87 80 86 90 91 84 86 88 89 86 90 95 91 94 94 90 89 91 93 93 92 94 93 92
134 133 129 127 125 125 123 122 125 124 121 119 118 115 116 116 116 111 107 105 103 99 88 98 88 90 91 95 95 89 94 94 96 98 95 95 99 95 94 95 93 94 92 93 94 96 95
144 141 139 138 131 130 130 127 129 130 128 122 123 120 122 121 120 120 117 111 108 100 97 106 101 100 97 97 102 99 98 100 102 103 101 101 101 99 103 105 102 100 107 104 106 105 99
148 145 147 146 138 138 139 133 130 131 133 129 129 124 125 122 121 123 125 121 114 107 109 115 107 105 102 105 105 105 109 108 111 109 109 108 106 112 106 103 105 105 105 104 105 104 96
152 150 147 148 146 144 139 135 132 131 130 130 130 127 125 123 125 128 131 129 118 118 122 117 114 111 113 114 112 114 112 107 108 110 109 108 111 109 103 99 102 99 101 103 104 102 101
155 155 155 152 147 148 146 145 139 136 132 132 135 135 131 127 128 130 131 124 122 120 126 124 120 115 114 109 115 112 110 111 112 111 113 107 108 109 110 106 101 101 103 106 104 106 105
149 152 157 159 159 155 149 147 146 148 143 143 144 143 138 137 137 133 127 123 127 129 130 128 123 127 124 119 114 119 115 121 120 114 112 108 106 107 112 111 109 110 107 108 109 110 113
140 144 147 148 153 156 158 155 151 148 147 150 148 145 138 139 140 135 122 124 129 130 130 128 123 122 122 117 116 122 114 108 105 110 111 114 109 108 110 115 115 114 118 120 116 115 118
124 128 134 136 143 146 152 151 156 156 156 153 150 144 141 143 142 140 128 126 128 130 130 124 128 124 126 124 115 113 113 123 125 117 120 121 120 121 117 118 118 124 126 122 122 120 121
110 115 120 122 125 131 135 139 147 152 155 155 157 150 154 153 136 137 136 136 135 136 134 132 129 129 130 127 128 130 131 138 130 135 134 135 129 126 127 127 128 130 129 128 125 127 128
94 100 105 110 112 118 118 124 129 138 141 148 150 154 159 159 151 150 149 145 142 143 144 143 143 143 142 143 145 144 147 145 140 137 133 134 130 132 132 130 132 134 133 127 130 131 131
82 84 89 94 99 106 108 111 114 114 124 127 138 143 146 144 148 147 153 155 150 152 151 150 154 155 154 153 151 150 150 147 139 138 136 136 134 131 133 131 133 133 129 124 131 131 124
74 76 79 81 86 93 95 102 102 104 108 112 118 120 120 116 113 123 132 137 142 145 147 151 153 149 146 146 140 136 134 131 133 130 129 127 127 130 126 128 126 119 113 114 111 106 102
66 69 72 75 78 82 84 87 90 95 100 105 106 110 108 105 108 107 113 117 117 120 126 128 127 128 130 126 120 117 115 115 115 112 112 111 108 108 106 106 106 96 92 94 98 91 86
61 62 65 67 70 73 76 76 80 85 91 97 97 98 99 103 96 96 95 98 101 105 105 107 109 105 105 102 105 105 101 101 100 101 100 98 97 97 96 94 90 77 78 87 83 73 74
52 55 59 62 64 65 66 69 73 79 82 85 86 87 92 92 86 89 89 87 86 88 92 93 97 96 97 94 94 92 88 88 86 87 88 88 85 87 84 82 79 65 73 76 73 62 76
46 48 51 54 57 61 61 66 66 73 77 78 79 84 84 80 79 79 79 76 76 72 75 80 83 83 82 83 82 79 77 79 76 78 78 80 79 78 75 74 65 62 64 67 65 62 66
41 43 45 48 50 55 57 61 64 66 67 68 74 77 75 73 74 74 73 68 69 62 63 71 71 68 71 73 72 71 68 70 70 70 71 73 72 67 68 67 59 61 58 59 59 57 54
35 37 40 42 45 48 49 53 56 57 59 62 66 69 70 67 68 66 62 62 62 59 60 59 63 65 65 66 66 65 61 61 63 61 64 62 61 58 61 56 59 57 54 52 51 48 47
Wind_Direction
263 263 264 264 262 262 262 264 261 261 262 265 269 270 269 266 269 277 277 276 271 273 273 275 278 280 280 272 276 274 272 274 275 276 275 279 277 278 276 275 277 280 281 283 284 288 291
262 262 261 263 262 263 265 263 264 265 262 266 270 272 269 272 271 275 276 275 274 272 275 276 279 276 277 275 276 274 271 271 275 276 277 277 278 276 276 278 280 282 285 285 285 286 287
260 257 258 262 263 263 263 264 266 266 264 265 268 272 271 269 274 274 272 275 277 274 275 276 278 280 280 278 275 277 276 275 271 269 275 282 275 271 273 280 283 284 283 280 281 285 287
260 258 259 261 261 259 265 261 265 267 266 265 266 269 270 272 271 273 274 274 273 274 276 276 278 276 279 280 283 285 278 269 266 268 283 287 291 278 277 282 284 285 285 287 283 285 290
264 266 262 263 258 264 261 259 261 267 268 266 265 265 267 270 274 271 274 274 272 275 275 276 279 276 280 281 279 278 277 274 283 283 286 287 290 285 280 278 281 285 285 284 283 288 291
262 265 266 264 261 262 263 258 263 266 268 265 264 266 267 268 271 275 272 274 271 275 275 275 277 279 279 280 278 278 277 278 278 281 284 288 287 278 275 275 274 283 285 287 294 292 291
260 261 264 265 264 264 262 264 261 262 265 266 267 270 268 267 270 268 275 273 273 272 274 276 276 277 276 279 277 279 277 273 275 276 279 285 282 281 279 279 281 281 285 287 289 293 293
256 257 258 261 262 266 266 263 260 258 264 267 265 267 268 266 268 268 272 274 270 271 272 276 275 276 276 277 278 275 280 277 275 275 277 279 281 280 281 283 283 281 281 286 289 291 294
249 252 254 257 258 260 261 266 265 263 263 263 261 262 265 266 269 269 269 272 269 269 270 272 273 277 279 277 274 275 273 273 273 272 274 276 276 275 280 283 283 284 286 285 287 289 291
252 251 249 253 254 256 258 259 263 264 266 265 264 268 266 266 266 268 266 269 272 267 268 269 270 277 274 275 268 274 274 272 272 272 274 276 276 277 277 280 282 283 285 287 289 287 289
253 250 251 249 252 253 254 256 260 262 262 264 266 268 269 270 268 268 268 267 267 268 266 267 265 268 273 270 271 270 274 274 271 274 277 276 277 276 279 279 282 286 285 287 288 287 286
253 253 250 252 253 256 256 255 256 259 260 261 264 265 267 269 270 269 268 269 268 269 271 270 267 269 270 269 272 270 271 273 273 275 276 276 277 278 278 280 281 282 282 283 284 284 284
252 250 253 252 254 254 255 256 257 256 258 258 259 262 264 265 268 269 268 267 267 270 270 268 268 268 267 267 269 271 271 271 274 277 274 275 276 277 280 278 278 280 282 283 283 284 285
249 252 252 252 253 254 254 255 255 257 257 255 256 257 258 261 263 265 266 267 268 269 267 268 267 268 265 270 268 268 270 270 271 274 271 275 278 277 280 280 279 281 280 282 281 282 284
245 247 251 253 251 253 253 252 253 254 255 257 256 258 257 258 260 260 263 265 268 269 268 266 266 267 266 269 269 269 271 271 273 273 276 278 280 278 278 278 282 281 280 281 283 282 282
243 244 246 246 248 249 251 252 253 253 250 252 254 255 258 258 258 259 260 263 266 265 266 269 270 268 268 267 269 269 270 271 272 275 276 279 279 281 281 280 283 279 280 282 284 284 284
246 246 245 245 246 246 247 248 250 250 249 251 251 254 256 257 257 257 260 264 264 265 266 264 268 272 270 271 268 269 272 273 274 275 276 276 274 276 279 281 281 282 282 283 282 284 286
248 247 248 248 247 247 244 245 246 247 247 249 250 255 255 257 258 257 257 259 261 265 266 268 270 270 271 272 272 271 276 272 273 275 272 276 279 280 279 281 282 283 280 282 284 286 286
250 249 249 250 249 248 247 246 245 247 246 246 250 249 252 253 254 256 254 256 257 258 263 260 263 265 267 268 267 266 268 269 272 272 272 275 276 278 279 279 279 280 279 281 282 286 288
249 249 249 249 248 248 249 249 249 249 249 248 249 248 245 250 249 252 255 254 251 253 254 257 258 258 261 261 262 264 266 270 269 269 269 271 271 273 275 277 278 278 278 279 282 283 286
247 247 247 247 248 248 247 249 248 249 250 250 251 251 248 251 248 250 251 252 252 252 256 258 258 260 260 261 262 263 266 267 269 270 272 272 272 273 274 276 276 277 278 282 283 284 284
249 247 246 245 245 246 246 248 246 248 248 250 250 251 253 252 251 254 255 253 252 254 256 254 257 260 261 261 262 263 268 269 271 273 270 269 269 272 277 278 276 275 279 283 282 284 285
247 247 246 244 243 243 243 245 245 247 247 247 250 251 252 253 251 252 255 255 254 255 257 259 259 262 264 264 266 268 268 269 269 267 269 271 271 274 277 274 274 276 280 280 280 280 283
244 244 243 244 243 243 242 242 243 243 245 247 248 249 252 253 252 250 250 250 253 255 256 257 258 260 261 262 264 265 266 267 267 268 270 271 270 270 273 273 275 278 278 277 276 278 283
244 243 241 241 242 242 242 240 240 241 242 244 247 248 250 252 250 252 250 251 251 252 254 256 257 258 261 261 262 263 264 265 267 268 269 270 272 272 274 274 276 279 278 276 278 280 279
243 241 240 239 239 239 239 238 236 240 241 242 244 245 247 249 251 250 251 251 251 252 254 256 257 258 259 262 262 263 264 263 264 266 268 269 270 270 270 272 275 279 274 278 279 281 273
242 240 238 238 237 237 235 237 234 235 238 240 242 244 246 248 250 251 252 252 253 251 252 254 256 256 258 259 260 261 262 262 263 263 264 265 267 269 271 274 276 273 275 275 275 272 276
240 239 237 236 235 235 234 234 234 235 236 236 239 245 247 247 249 251 253 254 256 254 253 251 254 256 255 257 257 259 259 260 260 260 262 264 268 272 272 274 278 273 270 269 272 274 273
237 236 234 234 234 235 235 234 235 235 235 235 237 240 243 245 247 249 251 253 254 252 252 254 253 252 252 253 254 255 257 258 261 262 262 265 268 270 273 273 272 273 273 274 275 272 274
Height
10699 10703 10706 10710 10715 10720 10724 10727 10729 10731 10734 10735 10737 10740 10741 10743 10744 10745 10747 10748 10749 10749 10748 10748 10750 10750 10751 10751 10754 10751 10753 10754 10753 10753 10753 10753 10753 10753 10752 10750 10751 10753 10752 10752 10751 10752 10747
10679 10681 10686 10690 10695 10700 10705 10708 10711 10713 10716 10718 10720 10723 10725 10727 10728 10730 10732 10734 10735 10736 10735 10735 10738 10738 10738 10739 10737 10737 10739 10740 10740 10741 10740 10739 10740 10741 10741 10741 10738 10742 10741 10741 10740 10740 10738
10658 10662 10667 10670 10675 10681 10683 10688 10692 10695 10697 10700 10703 10706 10707 10710 10711 10713 10716 10720 10721 10721 10721 10722 10725 10725 10724 10725 10724 10724 10726 10727 10727 10728 10727 10727 10728 10729 10729 10729 10726 10729 10729 10727 10727 10729 10724
10638 10642 10642 10645 10654 10660 10664 10670 10673 10675 10678 10681 10685 10687 10690 10692 10694 10697 10701 10703 10705 10706 10706 10708 10711 10713 10711 10713 10715 10712 10713 10714 10715 10715 10715 10714 10716 10717 10716 10717 10716 10718 10716 10715 10712 10715 10714
10619 10620 10623 10626 10632 10638 10643 10649 10654 10656 10659 10662 10665 10669 10673 10676 10678 10682 10685 10687 10689 10691 10692 10695 10697 10699 10700 10698 10702 10700 10704 10703 10702 10702 10701 10702 10703 10705 10704 10704 10707 10705 10702 10702 10697 10701 10701
10600 10602 10606 10608 10611 10615 10620 10626 10633 10638 10640 10643 10649 10652 10655 10658 10661 10665 10669 10670 10672 10675 10679 10679 10683 10682 10690 10686 10685 10690 10689 10690 10690 10689 10688 10688 10690 10690 10688 10692 10693 10690 10686 10688 10682 10683 10689
10580 10582 10582 10588 10589 10596 10600 10603 10613 10619 10622 10625 10628 10632 10637 10641 10643 10648 10652 10653 10655 10659 10664 10662 10670 10667 10675 10675 10675 10674 10675 10675 10676 10675 10674 10676 10678 10675 10675 10678 10680 10675 10671 10671 10670 10663 10670
10561 10563 10563 10568 10567 10569 10577 10585 10591 10598 10603 10606 10610 10614 10618 10622 10627 10629 10634 10635 10642 10640 10650 10647 10650 10656 10654 10664 10660 10658 10660 10660 10661 10660 10659 10663 10667 10658 10663 10660 10661 10659 10660 10656 10654 10650 10648
10536 10540 10544 10544 10551 10553 10556 10559 10566 10576 10584 10588 10593 10597 10600 10603 10608 10613 10613 10619 10620 10621 10631 10635 10633 10639 10639 10647 10643 10642 10646 10641 10641 10645 10641 10645 10646 10650 10646 10644 10644 10638 10640 10641 10640 10634 10631
10508 10515 10521 10525 10526 10530 10537 10541 10544 10550 10556 10562 10567 10573 10578 10582 10591 10590 10598 10595 10598 10605 10609 10622 10619 10628 10624 10624 10630 10623 10626 10627 10624 10626 10621 10629 10626 10627 10631 10632 10623 10625 10620 10622 10620 10616 10620
10475 10486 10494 10498 10504 10509 10513 10518 10524 10527 10533 10537 10541 10546 10548 10553 10564 10569 10578 10575 10580 10584 10590 10598 10615 10610 10605 10601 10610 10610 10605 10607 10608 10606 10604 10613 10608 10607 10612 10608 10610 10611 10604 10605 10599 10596 10597
10442 10451 10462 10468 10475 10479 10487 10497 10501 10506 10512 10516 10519 10522 10523 10527 10532 10546 10544 10550 10557 10561 10581 10568 10594 10588 10589 10583 10582 10594 10585 10585 10589 10585 10587 10592 10581 10593 10594 10588 10591 10588 10590 10584 10580 10575 10580
10411 10419 10425 10434 10449 10451 10456 10467 10474 10479 10483 10492 10499 10504 10503 10506 10511 10511 10516 10525 10531 10549 10556 10537 10562 10567 10565 10566 10563 10568 10567 10567 10565 10563 10564 10564 10567 10570 10573 10572 10573 10568 10560 10560 10556 10552 10559
10374 10380 10389 10398 10414 10418 10427 10440 10444 10449 10453 10461 10468 10478 10482 10489 10490 10486 10486 10494 10514 10534 10524 10512 10536 10543 10548 10537 10545 10545 10546 10547 10542 10545 10537 10545 10546 10545 10555 10553 10545 10546 10539 10535 10528 10533 10531
10337 10345 10355 10360 10377 10386 10393 10407 10418 10422 10427 10429 10434 10448 10455 10461 10465 10464 10464 10475 10499 10498 10490 10493 10504 10515 10521 10515 10518 10519 10521 10522 10518 10516 10523 10518 10521 10518 10530 10536 10525 10520 10516 10514 10505 10510 10510
10293 10305 10318 10329 10338 10350 10358 10372 10384 10393 10399 10403 10406 10412 10424 10433 10434 10435 10441 10465 10472 10470 10456 10467 10476 10486 10486 10493 10492 10492 10494 10494 10490 10497 10500 10503 10497 10492 10495 10499 10508 10504 10493 10487 10488 10479 10484
10254 10264 10277 10287 10301 10313 10324 10337 10346 10360 10369 10370 10374 10382 10403 10396 10399 10410 10431 10445 10440 10439 10437 10447 10451 10448 10461 10461 10464 10466 10474 10454 10463 10476 10476 10480 10484 10485 10471 10470 10474 10470 10469 10470 10466 10462 10455
10214 10226 10238 10246 10261 10274 10286 10299 10310 10322 10326 10331 10343 10354 10374 10361 10363 10384 10416 10418 10408 10412 10410 10419 10425 10426 10426 10432 10433 10437 10441 10424 10447 10443 10447 10445 10457 10463 10456 10449 10445 10443 10441 10437 10438 10445 10439
10179 10190 10202 10213 10225 10236 10250 10261 10272 10284 10294 10302 10308 10326 10330 10332 10345 10362 10381 10388 10385 10390 10388 10395 10405 10400 10401 10410 10407 10412 10416 10406 10426 10425 10425 10426 10427 10428 10438 10433 10430 10417 10408 10416 10415 10420 10419
10147 10156 10169 10178 10191 10201 10213 10225 10237 10247 10259 10266 10277 10285 10294 10303 10325 10333 10341 10351 10360 10359 10364 10369 10376 10376 10380 10384 10387 10385 10397 10381 10403 10395 10402 10401 10406 10408 10405 10405 10398 10388 10385 10386 10398 10392 10384
10117 10127 10137 10146 10158 10167 10181 10190 10202 10215 10222 10232 10242 10243 10261 10279 10298 10303 10300 10312 10323 10334 10338 10341 10345 10350 10354 10357 10358 10363 10365 10363 10367 10372 10377 10373 10379 10374 10373 10380 10369 10357 10356 10371 10363 10357 10350
10091 10100 10108 10119 10128 10136 10148 10163 10168 10187 10194 10195 10203 10213 10228 10243 10254 10270 10277 10282 10294 10298 10298 10310 10316 10318 10318 10326 10330 10335 10338 10336 10346 10350 10349 10347 10350 10345 10349 10352 10337 10330 10346 10348 10334 10325 10320
10068 10075 10083 10093 10101 10108 10124 10131 10147 10159 10164 10160 10174 10184 10191 10206 10228 10236 10250 10257 10256 10260 10266 10276 10285 10285 10287 10292 10301 10311 10309 10314 10312 10314 10316 10321 10322 10321 10321 10313 10309 10312 10332 10316 10309 10302 10299
10046 10054 10062 10069 10078 10086 10099 10110 10122 10131 10135 10140 10153 10157 10164 10177 10187 10208 10209 10213 10228 10239 10239 10239 10252 10255 10258 10264 10277 10280 10281 10279 10281 10288 10290 10290 10292 10289 10293 10290 10285 10306 10298 10289 10278 10285 10284
10027 10035 10042 10049 10057 10066 10077 10089 10099 10105 10113 10117 10127 10136 10142 10146 10164 10173 10184 10194 10204 10208 10217 10222 10218 10229 10235 10245 10244 10249 10257 10258 10262 10260 10263 10265 10266 10265 10263 10264 10267 10286 10272 10255 10259 10273 10258
10010 10017 10024 10031 10038 10048 10058 10067 10078 10082 10091 10098 10107 10115 10119 10127 10140 10153 10160 10168 10180 10190 10192 10198 10195 10206 10210 10218 10219 10226 10234 10236 10242 10240 10239 10239 10242 10235 10242 10244 10247 10265 10244 10239 10239 10256 10225
9996 10002 10008 10014 10022 10029 10040 10047 10058 10063 10070 10079 10089 10093 10101 10113 10125 10130 10138 10151 10158 10167 10173 10176 10177 10185 10191 10195 10199 10206 10211 10210 10220 10219 10221 10219 10219 10220 10225 10222 10236 10236 10231 10222 10223 10226 10219
9984 9989 9994 10000 10008 10013 10023 10032 10040 10048 10058 10068 10072 10076 10086 10099 10106 10114 10120 10133 10139 10148 10152 10153 10160 10170 10171 10174 10179 10183 10192 10192 10195 10201 10202 10203 10203 10210 10205 10206 10214 10208 10211 10208 10207 10206 10207
9975 9979 9984 9989 9996 10001 10010 10018 10026 10035 10045 10053 10062 10066 10071 10081 10092 10099 10107 10117 10123 10128 10133 10141 10141 10145 10151 10155 10160 10164 10175 10178 10180 10186 10184 10189 10188 10194 10186 10193 10187 10189 10193 10193 10190 10191 10192